{"data":{"norad_id":28361,"intl_designator":"2004-023A","name":"NAVSTAR 55 (USA 178)","alt_names":[],"object_type":"PAYLOAD","status":"ACTIVE","operator":null,"country":"US","launch_date":"2004-06-23","launch_site_code":"AFETR","launch_vehicle":null,"mission":null,"orbit_class":"UNKNOWN","rcs_meters":3.2117,"size_class":null,"mass_kg":null,"dimensions":null,"purposes":[],"wikipedia_slug":null,"has_3d_model":false,"image_url":null,"decayed_at":null,"tle_current":{"epoch":"2026-09-17T21:08:29.834304Z","epoch_age_seconds":234165,"freshness":"STALE","line1":"1 28361U 04023A   26260.88090086 -.00000006  00000+0  00000+0 0  9999","line2":"2 28361  54.9330  82.9684 0158724 304.2584  57.2172  2.00561299162902","mean_motion":2.00561299,"eccentricity":0.0158724,"inclination_deg":54.933,"raan_deg":82.9684,"arg_perigee_deg":304.2584,"mean_anomaly_deg":57.2172,"bstar":0,"rev_number":16290,"period_min":717.98497874707,"perigee_km":19760.834623298,"apogee_km":20603.994012779,"semimajor_km":26560.551318039,"source":"CELESTRAK","updated_at":"2026-09-20T09:00:13.596247Z"}}}